TimeEST,TemperatureF,Dew PointF,Humidity,Sea Level PressureIn,VisibilityMPH,Wind Direction,Wind SpeedMPH,Gust SpeedMPH,PrecipitationIn,Events,Conditions,WindDirDegrees,DateUTC
12:51 AM,37.0,32.0,82,30.08,10.0,Calm,Calm,-,N/A,,Clear,0,2013-02-15 05:51:00
1:51 AM,37.9,33.1,83,30.08,10.0,WNW,3.5,-,N/A,,Clear,300,2013-02-15 06:51:00
2:51 AM,37.0,33.1,86,30.06,9.0,NW,5.8,-,N/A,,Clear,310,2013-02-15 07:51:00
3:51 AM,37.0,33.1,86,30.06,9.0,NW,6.9,-,N/A,,Clear,320,2013-02-15 08:51:00
4:51 AM,39.0,33.1,79,30.06,10.0,NW,5.8,-,N/A,,Clear,320,2013-02-15 09:51:00
5:51 AM,36.0,32.0,86,30.09,9.0,NW,5.8,-,N/A,,Clear,310,2013-02-15 10:51:00
6:51 AM,36.0,33.1,89,30.11,9.0,NW,8.1,-,N/A,,Clear,310,2013-02-15 11:51:00
7:51 AM,35.1,32.0,89,30.11,6.0,NW,4.6,-,N/A,,Clear,310,2013-02-15 12:51:00
8:51 AM,42.1,35.1,76,30.12,8.0,NW,5.8,-,N/A,,Clear,310,2013-02-15 13:51:00
9:51 AM,48.0,37.0,66,30.12,8.0,NW,4.6,-,N/A,,Clear,310,2013-02-15 14:51:00
10:51 AM,55.0,37.0,51,30.12,10.0,Variable,4.6,-,N/A,,Clear,0,2013-02-15 15:51:00
11:51 AM,59.0,35.1,41,30.10,10.0,Calm,Calm,-,N/A,,Clear,0,2013-02-15 16:51:00
12:51 PM,61.0,32.0,34,30.07,10.0,Variable,5.8,-,N/A,,Clear,0,2013-02-15 17:51:00
1:51 PM,62.1,32.0,32,30.03,10.0,West,5.8,-,N/A,,Clear,270,2013-02-15 18:51:00
2:51 PM,64.0,30.0,28,30.00,10.0,West,6.9,-,N/A,,Scattered Clouds,270,2013-02-15 19:51:00
3:51 PM,63.0,28.9,28,29.98,10.0,WNW,5.8,-,N/A,,Clear,300,2013-02-15 20:51:00
4:51 PM,62.1,28.9,29,29.98,10.0,WNW,9.2,16.1,N/A,,Partly Cloudy,300,2013-02-15 21:51:00
5:51 PM,59.0,30.9,35,29.98,10.0,NW,6.9,-,N/A,,Scattered Clouds,310,2013-02-15 22:51:00
6:51 PM,55.0,30.9,40,29.99,10.0,West,3.5,-,N/A,,Clear,260,2013-02-15 23:51:00
7:51 PM,51.1,32.0,48,29.99,10.0,Calm,Calm,-,N/A,,Clear,0,2013-02-16 00:51:00
8:51 PM,50.0,33.1,52,30.00,10.0,NW,5.8,-,N/A,,Partly Cloudy,320,2013-02-16 01:51:00
9:51 PM,48.0,35.1,61,30.00,10.0,NW,6.9,-,N/A,,Partly Cloudy,320,2013-02-16 02:51:00
10:51 PM,48.0,35.1,61,30.00,10.0,NNW,9.2,-,N/A,,Partly Cloudy,330,2013-02-16 03:51:00
11:51 PM,45.0,34.0,65,29.99,10.0,NW,6.9,-,N/A,,Overcast,310,2013-02-16 04:51:00